User: anonymous   Login
Location: Unspecified
(0.0000°N, 0.0000°E)
Time: 00:21:33
(UTC+00:00)
Language:

CHUBUSAT 2 - Orbit

View from above orbital plane
View from above orbital plane
View from above satellite
View from above satellite

Ground track
Ground track

The orbit data is extracted from the following two-line orbital elements,

1 41338U 16012B   21023.38053801  .00000348  00000-0  20254-4 0  9997
2 41338  31.0046  28.3320 0013691 136.0709 224.1017 15.00426850270792
Epoch (UTC): 23 January 2021 09:07:58
Eccentricity: 0.0013691
inclination: 31.0046°
perigee height: 556 km
apogee height: 575 km
right ascension of ascending node: 28.3320°
argument of perigee: 136.0709°
revolutions per day: 15.00426850
mean anomaly at epoch: 224.1017°
orbit number at epoch: 27079

The dashed part of the orbit path shows where the satellite is in the earth's shadow,  

DLR